This is the latest recevied weather packets stored in our database for station/object KM4KBD. If no packets are shown the sender has not sent any weather packets the latest 10 day(s).
| Time | Temp. | Humidity | Pressure | Rain* | Wind** | Luminosity | Snow |
|---|---|---|---|---|---|---|---|
| 1778068602 | 10.56° C | 99% | 1015.8 hPa | 0 mm | - | 18 W/m² | - |
| 1778068300 | 11.11° C | 99% | 1015.9 hPa | 0 mm | - | 15 W/m² | - |
| 1778067997 | 11.67° C | 99% | 1015.9 hPa | 0 mm | - | 13 W/m² | - |
| 1778067695 | 11.67° C | 99% | 1015.5 hPa | 0 mm | - | 12 W/m² | - |
| 1778067393 | 12.22° C | 99% | 1015.5 hPa | 0 mm | - | 13 W/m² | - |
| 1778067090 | 12.78° C | 99% | 1015.4 hPa | 0 mm | - | 9 W/m² | - |
| 1778066786 | 13.89° C | 99% | 1015.2 hPa | 0 mm | - | 8 W/m² | - |
| 1778066484 | 13.89° C | 99% | 1015 hPa | 0 mm | - | 9 W/m² | - |
| 1778066181 | 13.89° C | 99% | 1014.6 hPa | 0 mm | - | 11 W/m² | - |
| 1778065879 | 14.44° C | 99% | 1014.4 hPa | 0 mm | - | 9 W/m² | - |
| 1778065576 | 14.44° C | 99% | 1014.1 hPa | 0 mm | - | 6 W/m² | - |
| 1778065274 | 14.44° C | 99% | 1014.2 hPa | 0 mm | - | 7 W/m² | - |
| 1778064970 | 14.44° C | 99% | 1014.2 hPa | 0 mm | - | 5 W/m² | - |
| 1778064667 | 15° C | 99% | 1014.2 hPa | 0 mm | - | 2 W/m² | - |
| 1778064365 | 15° C | 99% | 1014 hPa | 0 mm | - | 1 W/m² | - |
| 1778064062 | 15° C | 99% | 1014 hPa | 0 mm | - | 0 W/m² | - |
| 1778063759 | 15° C | 99% | 1014.3 hPa | 0 mm | - | 0 W/m² | - |
| 1778063456 | 15° C | 99% | 1014.1 hPa | 0 mm | - | 0 W/m² | - |
| 1778063155 | 15° C | 99% | 1014.1 hPa | 0 mm | - | 0 W/m² | - |
| 1778062852 | 15° C | 99% | 1014 hPa | 0 mm | - | 0 W/m² | - |
| 1778062548 | 15° C | 99% | 1013.7 hPa | 0 mm | - | 0 W/m² | - |
| 1778062245 | 15° C | 99% | 1013.8 hPa | 0 mm | - | 0 W/m² | - |
| 1778061944 | 15° C | 99% | 1013.4 hPa | 0 mm | - | 0 W/m² | - |
| 1778061641 | 15° C | 99% | 1013.6 hPa | 0 mm | - | 0 W/m² | - |
| 1778061340 | 15° C | 99% | 1013.2 hPa | 0 mm | - | 0 W/m² | - |
* Rain latest hour (hover to see other rain measurements)
** Current wind speed in m/s (hover to see current wind gust speed)